Volver al catálogo

IRIDE-MS2-HEO-12

ActivoCienciaSSO
NORAD 68984·PAYLOAD·🇮🇹 Italy

Lanzado May 3, 2026 desde Vandenberg Space Force Base

Loading…

Próximos Pases (próximas 24 horas)

TLE

ActualizadoSource: Space-Track

Época: Sep 14, 2026, 11:32 UTC

1 68984U 26100E   26257.48070227  .00001007  00000-0  10786-3 0  9999
2 68984  97.7212 153.0395 0003086 189.9751 170.1407 14.90842531 20007

Sigue IRIDE-MS2-HEO-12 en tiempo real con AllMySat

Download on the App Store